星链-32125 (STARLINK-32125)

导读

STARLINK-32125是美国太空探索技术公司(SpaceX)于2024年7月27日发射的星链卫星,隶属于星链星座,星链项目旨在构建覆盖全球的卫星互联网星座,为全球用户提供高速互联网接入服务,该卫星入轨后承担相应网络信号传输任务,助力星链全球组网进程推进,拓展全球卫星互联网服务覆盖范围。

基本信息
目录编号:
60260
目录名称:
STARLINK-32125
国际标识:
2024-131F
轨道中心:
EARTH
卫星名称:
星链-32125 (STARLINK-32125)
卫星全名:
星链-32125 (STARLINK-32125)
卫星状态:
在轨 (已飞行691 天)
发射日期:
2024-07-27 UTC
国别 :
美国 (US)
星等 :
--
轨道信息
数据来源 国际轨道数据
星历时间: 2026-06-17T22:58:20+0800
9小时前
查看轨道信息
半长轴: 6853.37km
偏心率: 0.0001165
轨道倾角: 53.162°
近地点辐角 90.596°
升交点赤经 307.920°
平近点角 269.517°
近地点: 474.434km
远地点: 476.032km
周期: 94.106分钟
每日圈数: 15.301942
详细信息
卫星平台:
Starlink v2.0 mini
运营商:
太空探索技术公司
运营商所在国:
美国
制造商(研发单位):
太空探索技术公司
制造商所在国:
美国
使用方式:
暂无
卫星简介
星链(Starlink)计划是由太空探索技术公司(SpaceX)提出的一个巨型低轨卫星互联网星座项目,计划在2019年至2024年间在太空搭建由约1.2万颗卫星组成的“星链”网络,其中1584颗将部署在地球上空550千米处的近地轨道,并从2020年开始工作。该卫星仍在工作。
2D轨道图
3D轨道图
轨道高度分析图
轨道倾角分析图
轨道综合分析图
查看轨道综合分析图